TimeCST,TemperatureF,Dew PointF,Humidity,Sea Level PressureIn,VisibilityMPH,Wind Direction,Wind SpeedMPH,Gust SpeedMPH,PrecipitationIn,Events,Conditions,WindDirDegrees,DateUTC
12:55 AM,41.9,36.0,79,30.34,10.0,North,6.9,-,N/A,,Clear,360,2013-01-05 06:55:00
1:55 AM,40.6,36.1,84,30.33,10.0,NNE,8.1,-,N/A,,Clear,20,2013-01-05 07:55:00
2:55 AM,43.7,32.7,65,30.33,10.0,NNE,9.2,-,N/A,,Clear,30,2013-01-05 08:55:00
3:55 AM,43.5,31.6,63,30.33,10.0,NE,6.9,-,N/A,,Partly Cloudy,40,2013-01-05 09:55:00
4:55 AM,43.3,30.9,62,30.33,10.0,ENE,9.2,-,N/A,,Clear,60,2013-01-05 10:55:00
5:55 AM,42.4,31.5,65,30.33,10.0,ENE,10.4,-,N/A,,Clear,60,2013-01-05 11:55:00
6:55 AM,42.4,31.5,65,30.35,10.0,NE,8.1,-,N/A,,Clear,50,2013-01-05 12:55:00
7:55 AM,43.7,32.0,63,30.36,10.0,ENE,8.1,-,N/A,,Clear,60,2013-01-05 13:55:00
8:55 AM,47.7,32.0,55,30.36,10.0,ENE,11.5,-,N/A,,Clear,60,2013-01-05 14:55:00
9:55 AM,52.2,33.1,48,30.36,10.0,ENE,9.2,16.1,N/A,,Scattered Clouds,70,2013-01-05 15:55:00
10:55 AM,53.2,33.8,48,30.35,10.0,ENE,9.2,-,N/A,,Overcast,60,2013-01-05 16:55:00
11:55 AM,53.8,35.6,50,30.31,10.0,NE,6.9,-,N/A,,Scattered Clouds,50,2013-01-05 17:55:00
12:41 PM,53.6,37.4,54,30.29,10.0,NE,5.8,-,N/A,Rain,Light Rain,50,2013-01-05 18:41:00
12:55 PM,52.9,36.7,54,30.30,10.0,ENE,4.6,-,0.00,Rain,Light Rain,70,2013-01-05 18:55:00
1:20 PM,53.6,37.4,54,30.28,10.0,East,6.9,-,N/A,,Scattered Clouds,80,2013-01-05 19:20:00
1:34 PM,53.6,37.4,54,30.27,10.0,East,5.8,-,N/A,Rain,Light Rain,100,2013-01-05 19:34:00
1:43 PM,53.6,37.4,54,30.26,10.0,East,6.9,-,N/A,,Mostly Cloudy,90,2013-01-05 19:43:00
1:55 PM,52.7,38.1,58,30.26,10.0,East,6.9,-,0.00,,Light Drizzle,80,2013-01-05 19:55:00
2:11 PM,53.6,39.2,58,30.27,10.0,East,5.8,-,N/A,,Scattered Clouds,80,2013-01-05 20:11:00
2:55 PM,53.4,39.2,59,30.30,10.0,Calm,Calm,-,0.00,,Mostly Cloudy,0,2013-01-05 20:55:00
3:37 PM,51.8,41.0,67,30.30,10.0,Calm,Calm,-,N/A,Rain,Light Rain,0,2013-01-05 21:37:00
3:55 PM,52.2,41.9,68,30.31,10.0,NNE,3.5,-,0.00,,Light Drizzle,20,2013-01-05 21:55:00
3:57 PM,51.8,41.0,67,30.31,10.0,Calm,Calm,-,N/A,,Partly Cloudy,0,2013-01-05 21:57:00
4:55 PM,51.3,43.3,74,30.31,10.0,Calm,Calm,-,0.00,,Partly Cloudy,0,2013-01-05 22:55:00
5:55 PM,51.1,42.4,72,30.30,10.0,NE,5.8,-,N/A,,Partly Cloudy,50,2013-01-05 23:55:00
6:19 PM,50.0,42.8,76,30.32,10.0,North,9.2,-,N/A,,Light Drizzle,350,2013-01-06 00:19:00
6:42 PM,50.0,42.8,76,30.32,10.0,North,10.4,-,N/A,,Partly Cloudy,10,2013-01-06 00:42:00
6:55 PM,49.8,42.4,76,30.31,10.0,NNE,11.5,-,0.00,,Partly Cloudy,20,2013-01-06 00:55:00
6:56 PM,50.0,42.8,76,30.31,10.0,NNE,11.5,-,N/A,,Light Drizzle,20,2013-01-06 00:56:00
6:58 PM,50.0,42.8,76,30.31,10.0,NNE,11.5,-,N/A,,Partly Cloudy,30,2013-01-06 00:58:00
7:23 PM,51.8,39.2,62,30.29,10.0,East,12.7,-,N/A,Rain,Light Rain,80,2013-01-06 01:23:00
7:35 PM,51.8,39.2,62,30.29,10.0,ENE,10.4,-,N/A,,Mostly Cloudy,70,2013-01-06 01:35:00
7:55 PM,51.4,39.7,64,30.27,10.0,East,10.4,-,0.00,,Mostly Cloudy,80,2013-01-06 01:55:00
8:55 PM,50.4,39.2,66,30.27,10.0,NE,6.9,-,N/A,,Scattered Clouds,40,2013-01-06 02:55:00
9:55 PM,49.6,39.6,68,30.26,10.0,NNE,6.9,-,N/A,,Partly Cloudy,30,2013-01-06 03:55:00
10:55 PM,49.1,39.7,70,30.25,10.0,NNE,8.1,-,N/A,,Clear,20,2013-01-06 04:55:00
11:55 PM,49.1,38.8,68,30.24,10.0,NNE,4.6,-,N/A,,Mostly Cloudy,30,2013-01-06 05:55:00